IZ1GCT Weather Reports


Display with metric or nautical units.
time (UTC)temp
F
wind
direction
speed
MPH
gust
MPH
rain 1hr
in
rain 24hr
in
rain mn
in
humidity
%
barometer
mb
20260502205052 56 135 0.0 1.0 0.00 0.00 0.00 63 1024.3
20260502204552 56 158 1.0 2.0 0.00 0.00 0.00 63 1024.3
20260502204052 56 154 2.0 3.0 0.00 0.00 0.00 62 1024.3
20260502203553 56 158 0.0 0.0 0.00 0.00 0.00 62 1024.4
20260502203052 56 158 1.0 1.0 0.00 0.00 0.00 62 1024.3
20260502202553 56 135 0.0 0.0 0.00 0.00 0.00 62 1024.3
20260502202053 56 148 0.0 1.0 0.00 0.00 0.00 62 1024.3
20260502201552 56 135 1.0 2.0 0.00 0.00 0.00 61 1024.3
20260502201052 57 158 1.0 3.0 0.00 0.00 0.00 61 1024.4
20260502200552 57 135 1.0 3.0 0.00 0.00 0.00 61 1024.4
20260502200051 57 135 1.0 2.0 0.00 0.00 0.00 61 1024.4
20260502195553 57 158 1.0 1.0 0.00 0.00 0.00 60 1024.4
20260502195052 57 158 1.0 2.0 0.00 0.00 0.00 60 1024.3
20260502194553 58 158 0.0 0.0 0.00 0.00 0.00 59 1024.3
20260502194053 58 158 0.0 0.0 0.00 0.00 0.00 59 1024.2
20260502193552 58 158 2.0 3.0 0.00 0.00 0.00 60 1024.2
20260502193051 58 135 2.0 3.0 0.00 0.00 0.00 60 1024.2
20260502192553 58 135 1.0 2.0 0.00 0.00 0.00 60 1024.1
20260502192052 58 158 0.0 1.0 0.00 0.00 0.00 59 1024.1
20260502191553 59 158 0.0 0.0 0.00 0.00 0.00 60 1024.0
20260502191052 59 158 0.0 1.0 0.00 0.00 0.00 59 1023.9
20260502190552 59 141 1.0 3.0 0.00 0.00 0.00 58 1023.9
20260502190053 60 158 2.0 3.0 0.00 0.00 0.00 55 1023.7
20260502185553 60 150 0.0 2.0 0.00 0.00 0.00 53 1023.6
20260502185053 61 158 0.0 1.0 0.00 0.00 0.00 53 1023.7
20260502184552 61 135 1.0 2.0 0.00 0.00 0.00 53 1023.6
20260502184052 62 158 0.0 0.0 0.00 0.00 0.00 52 1023.6
20260502183553 62 135 2.0 5.0 0.00 0.00 0.00 51 1023.5
20260502183053 62 158 1.0 2.0 0.00 0.00 0.00 51 1023.5
20260502182552 63 158 5.0 6.0 0.00 0.00 0.00 51 1023.5
20260502182052 63 153 3.0 6.0 0.00 0.00 0.00 51 1023.5
20260502181553 63 142 3.0 5.0 0.00 0.00 0.00 50 1023.4
20260502181052 64 141 3.0 6.0 0.00 0.00 0.00 46 1023.4
20260502180552 64 144 3.0 5.0 0.00 0.00 0.00 45 1023.4
20260502164052 70 140 3.0 8.0 0.00 0.00 0.00 37 1023.3
20260502163552 70 135 7.0 9.0 0.00 0.00 0.00 36 1023.2
20260502163053 71 123 5.0 6.0 0.00 0.00 0.00 37 1023.3
20260502162552 71 118 6.0 10.0 0.00 0.00 0.00 36 1023.5
20260502162052 71 135 6.0 8.0 0.00 0.00 0.00 36 1023.5
20260502161553 70 152 7.0 10.0 0.00 0.00 0.00 36 1023.4
20260502161053 70 135 5.0 8.0 0.00 0.00 0.00 36 1023.5
20260502160552 70 112 7.0 10.0 0.00 0.00 0.00 37 1023.5
20260502152054 73 135 7.0 9.0 0.00 0.00 0.00 35 1023.7
20260502151553 72 150 5.0 8.0 0.00 0.00 0.00 40 1023.5
20260502151053 71 135 8.0 10.0 0.00 0.00 0.00 39 1023.6
20260502150554 72 118 8.0 13.0 0.00 0.00 0.00 38 1023.7
20260502130554 71 112 6.0 10.0 0.00 0.00 0.00 42 1025.2
20260502123554 71 128 5.0 7.0 0.00 0.00 0.00 41 1025.1
20260502123054 71 146 8.0 13.0 0.00 0.00 0.00 41 1025.2
20260502122553 70 148 6.0 8.0 0.00 0.00 0.00 42 1025.2
20260502122053 71 125 5.0 8.0 0.00 0.00 0.00 41 1025.4
20260502121553 71 135 8.0 9.0 0.00 0.00 0.00 42 1025.5
20260502121054 71 128 7.0 10.0 0.00 0.00 0.00 41 1025.4
20260502120553 70 145 9.0 14.0 0.00 0.00 0.00 41 1025.6
20260502115554 70 124 7.0 9.0 0.00 0.00 0.00 41 1025.6
20260502115053 70 150 5.0 6.0 0.00 0.00 0.00 41 1025.8
20260502114552 69 131 10.0 13.0 0.00 0.00 0.00 41 1025.7
20260502114054 69 127 8.0 10.0 0.00 0.00 0.00 41 1025.9
20260502113553 69 120 8.0 10.0 0.00 0.00 0.00 41 1026.0
20260502113053 70 135 8.0 13.0 0.00 0.00 0.00 40 1025.9
20260502112553 71 120 6.0 9.0 0.00 0.00 0.00 40 1025.9
20260502112053 70 113 5.0 8.0 0.00 0.00 0.00 41 1026.1
20260502111554 70 118 7.0 9.0 0.00 0.00 0.00 41 1026.3
20260502111053 70 112 8.0 13.0 0.00 0.00 0.00 41 1026.3
20260502110553 70 135 9.0 12.0 0.00 0.00 0.00 41 1026.4
20260502110053 69 135 8.0 10.0 0.00 0.00 0.00 41 1026.6
20260502105552 69 112 8.0 9.0 0.00 0.00 0.00 40 1026.6
20260502105054 69 114 3.0 8.0 0.00 0.00 0.00 42 1026.8
20260502104553 68 123 7.0 10.0 0.00 0.00 0.00 40 1026.7
20260502104052 68 135 7.0 8.0 0.00 0.00 0.00 40 1026.9
20260502103554 68 130 7.0 10.0 0.00 0.00 0.00 41 1026.9
20260502103053 68 135 7.0 10.0 0.00 0.00 0.00 40 1027.0
20260502102553 69 155 6.0 10.0 0.00 0.00 0.00 40 1027.1
20260502102054 68 112 6.0 10.0 0.00 0.00 0.00 41 1027.1
20260502101553 68 135 8.0 13.0 0.00 0.00 0.00 40 1027.1
20260502101052 68 130 6.0 8.0 0.00 0.00 0.00 40 1027.3
20260502100553 69 123 7.0 10.0 0.00 0.00 0.00 40 1027.2
20260502091053 67 142 5.0 7.0 0.00 0.00 0.00 39 1027.7
20260502090552 66 137 3.0 8.0 0.00 0.00 0.00 40 1027.9
20260502071053 64 135 1.0 3.0 0.00 0.00 0.00 36 1028.5
20260502070553 62 135 3.0 6.0 0.00 0.00 0.00 40 1028.7
20260502070054 61 135 3.0 5.0 0.00 0.00 0.00 40 1028.8
20260502065553 61 135 2.0 3.0 0.00 0.00 0.00 41 1028.7
20260502065052 60 135 3.0 6.0 0.00 0.00 0.00 42 1028.8
20260502064554 60 135 3.0 5.0 0.00 0.00 0.00 43 1028.7
20260502064053 60 135 3.0 6.0 0.00 0.00 0.00 44 1028.9
20260502063552 59 135 2.0 5.0 0.00 0.00 0.00 43 1028.8
20260502063052 59 135 3.0 3.0 0.00 0.00 0.00 43 1028.9
20260502062553 58 135 0.0 1.0 0.00 0.00 0.00 48 1028.9
20260502062052 57 135 2.0 3.0 0.00 0.00 0.00 45 1029.0
20260502061554 57 135 5.0 7.0 0.00 0.00 0.00 43 1028.9
20260502061052 56 135 5.0 7.0 0.00 0.00 0.00 43 1028.9
20260502060553 56 135 3.0 3.0 0.00 0.00 0.00 43 1029.0
20260502060052 56 135 3.0 3.0 0.00 0.00 0.00 46 1029.0
20260502055554 55 135 2.0 6.0 0.00 0.00 0.00 49 1029.0
20260502055053 54 135 2.0 3.0 0.00 0.00 0.00 52 1029.0
20260502054553 54 135 3.0 6.0 0.00 0.00 0.00 52 1029.0
20260502054052 53 135 2.0 3.0 0.00 0.00 0.00 53 1029.0
20260502053553 52 143 3.0 6.0 0.00 0.00 0.00 54 1029.0
20260502053053 51 135 2.0 3.0 0.00 0.00 0.00 58 1029.0
20260502052552 50 135 2.0 3.0 0.00 0.00 0.00 60 1029.0
20260502052052 49 135 3.0 6.0 0.00 0.00 0.00 60 1029.0
20260502051554 48 135 5.0 6.0 0.00 0.00 0.00 60 1028.9
20260502051053 48 135 5.0 6.0 0.00 0.00 0.00 62 1028.8
20260502050553 47 135 6.0 8.0 0.00 0.00 0.00 65 1028.9
20260502050052 46 135 3.0 6.0 0.00 0.00 0.00 69 1028.9
20260502045553 45 139 1.0 2.0 0.00 0.00 0.00 70 1028.9
20260502045054 46 148 1.0 3.0 0.00 0.00 0.00 68 1028.8
20260502044553 46 135 3.0 5.0 0.00 0.00 0.00 70 1028.7
20260502044053 45 152 2.0 3.0 0.00 0.00 0.00 75 1028.8
20260502043553 45 145 1.0 3.0 0.00 0.00 0.00 76 1028.9
20260502043041 44 145 1.0 2.0 0.00 0.00 0.00 78 1028.9
20260502042540 44 155 3.0 5.0 0.00 0.00 0.00 77 1028.8
20260502042042 45 147 0.0 1.0 0.00 0.00 0.00 76 1029.0
20260502041541 45 158 2.0 3.0 0.00 0.00 0.00 74 1028.9
20260502041041 46 135 1.0 1.0 0.00 0.00 0.00 70 1028.9
20260502040540 46 158 1.0 2.0 0.00 0.00 0.00 69 1028.9
20260502035543 47 144 0.0 3.0 0.00 0.00 0.00 67 1028.7
20260502035042 47 135 2.0 3.0 0.00 0.00 0.00 66 1028.8
20260502034543 46 135 3.0 6.0 0.00 0.00 0.00 70 1028.8
20260502034043 46 158 1.0 2.0 0.00 0.00 0.00 70 1028.7
20260502033542 47 135 1.0 3.0 0.00 0.00 0.00 70 1028.7
20260502033043 46 135 5.0 6.0 0.00 0.00 0.00 72 1028.7
20260502032543 45 158 1.0 2.0 0.00 0.00 0.00 78 1028.7
20260502032042 46 158 2.0 3.0 0.00 0.00 0.00 71 1028.9
20260502031544 46 158 0.0 2.0 0.00 0.00 0.00 71 1028.8
20260502031043 46 158 0.0 1.0 0.00 0.00 0.00 70 1028.8
20260502030543 47 135 2.0 3.0 0.00 0.00 0.00 68 1028.9
20260502030042 48 135 3.0 3.0 0.00 0.00 0.00 67 1028.9
20260502025543 48 135 3.0 5.0 0.00 0.00 0.00 70 1028.8
20260502025042 47 135 3.0 6.0 0.00 0.00 0.00 70 1028.7
20260502024542 47 158 1.0 3.0 0.00 0.00 0.00 71 1028.8
20260502024042 47 135 6.0 8.0 0.00 0.00 0.00 72 1028.8
20260502023543 46 135 3.0 5.0 0.00 0.00 0.00 75 1028.8
20260502023042 45 135 7.0 8.0 0.00 0.00 0.00 82 1028.8
20260502022544 45 150 1.0 2.0 0.00 0.00 0.00 83 1028.8
20260502022043 45 135 1.0 1.0 0.00 0.00 0.00 83 1028.8
20260502021543 45 135 0.0 1.0 0.00 0.00 0.00 83 1028.8
20260502021042 45 135 3.0 6.0 0.00 0.00 0.00 82 1028.8
20260502020543 45 146 3.0 5.0 0.00 0.00 0.00 79 1028.7
20260502020043 46 158 3.0 5.0 0.00 0.00 0.00 76 1028.7
20260502015542 46 135 3.0 6.0 0.00 0.00 0.00 77 1028.7
20260502015043 46 158 2.0 3.0 0.00 0.00 0.00 80 1028.7
20260502014543 45 135 3.0 5.0 0.00 0.00 0.00 86 1028.7
20260502014042 44 145 0.0 1.0 0.00 0.00 0.00 86 1028.7
20260502013544 45 158 2.0 3.0 0.00 0.00 0.00 86 1028.6
20260502013043 44 135 1.0 1.0 0.00 0.00 0.00 86 1028.7
20260502012542 45 135 0.0 1.0 0.00 0.00 0.00 86 1028.5
20260502012044 44 135 3.0 3.0 0.00 0.00 0.00 86 1028.6
20260502011542 44 158 2.0 3.0 0.00 0.00 0.00 85 1028.7
20260502011044 44 142 1.0 1.0 0.00 0.00 0.00 84 1028.5
20260502010543 45 133 1.0 2.0 0.00 0.00 0.00 84 1028.6
20260502010042 45 112 1.0 1.0 0.00 0.00 0.00 84 1028.6
20260502005543 45 135 1.0 2.0 0.00 0.00 0.00 83 1028.5
20260502005043 45 135 0.0 1.0 0.00 0.00 0.00 83 1028.5
20260502004542 46 158 1.0 2.0 0.00 0.00 0.00 78 1028.5
20260502004042 45 158 1.0 1.0 0.00 0.00 0.00 82 1028.5
20260502003544 46 158 0.0 1.0 0.00 0.00 0.00 77 1028.5
20260502003043 46 147 0.0 0.0 0.00 0.00 0.00 76 1028.5
20260502002543 46 135 0.0 2.0 0.00 0.00 0.00 76 1028.4
20260502002042 46 158 1.0 2.0 0.00 0.00 0.00 76 1028.4
20260502001544 46 158 1.0 3.0 0.00 0.00 0.00 77 1028.5
20260502001043 47 155 3.0 3.0 0.00 0.00 0.00 77 1028.4
20260502000542 47 158 2.0 5.0 0.00 0.00 0.00 77 1028.6
20260502000044 47 158 3.0 3.0 0.00 0.00 0.00 77 1028.6
20260501235543 47 135 0.0 3.0 0.00 0.00 0.00 77 1028.5
20260501235043 47 135 2.0 3.0 0.00 0.00 0.00 77 1028.6
20260501234543 47 140 1.0 3.0 0.00 0.00 0.00 76 1028.5
20260501234043 47 135 3.0 5.0 0.00 0.00 0.00 76 1028.6
20260501233542 47 150 2.0 3.0 0.00 0.00 0.00 76 1028.6
20260501233043 47 135 2.0 3.0 0.00 0.00 0.00 75 1028.6
20260501232543 48 135 0.0 0.0 0.00 0.00 0.00 74 1028.7
20260501232042 48 152 1.0 2.0 0.00 0.00 0.00 74 1028.7
20260501231543 48 158 2.0 3.0 0.00 0.00 0.00 73 1028.7
20260501231042 49 150 0.0 2.0 0.00 0.00 0.00 73 1028.7
20260501230543 49 156 5.0 7.0 0.00 0.00 0.00 74 1028.6
20260501230042 49 158 5.0 6.0 0.00 0.00 0.00 74 1028.6
20260501225543 49 146 3.0 5.0 0.00 0.00 0.00 75 1028.7
20260501225043 48 157 2.0 3.0 0.00 0.00 0.00 76 1028.7
20260501224542 48 158 2.0 3.0 0.00 0.00 0.00 76 1028.7
20260501224043 48 135 0.0 1.0 0.00 0.00 0.00 76 1028.7
20260501223543 49 135 2.0 3.0 0.00 0.00 0.00 75 1028.8
20260501223042 49 135 1.0 2.0 0.00 0.00 0.00 76 1028.6
20260501222542 49 138 3.0 6.0 0.00 0.00 0.00 76 1028.7
20260501222043 49 135 0.0 1.0 0.00 0.00 0.00 75 1028.8
20260501221542 49 158 0.0 1.0 0.00 0.00 0.00 75 1028.7
20260501221043 50 135 0.0 2.0 0.00 0.00 0.00 75 1028.7
20260501220543 50 135 2.0 5.0 0.00 0.00 0.00 76 1028.6
20260501220042 49 135 1.0 3.0 0.00 0.00 0.00 77 1028.6
20260501215544 49 158 0.0 0.0 0.00 0.00 0.00 76 1028.6
20260501215043 50 158 0.0 2.0 0.00 0.00 0.00 77 1028.6
20260501214542 50 135 0.0 1.0 0.00 0.00 0.00 77 1028.7
20260501214042 50 143 0.0 1.0 0.00 0.00 0.00 77 1028.6
20260501213543 50 158 0.0 1.0 0.00 0.00 0.00 77 1028.6
20260501213042 50 153 2.0 3.0 0.00 0.00 0.00 77 1028.8
20260501212542 50 148 1.0 3.0 0.00 0.00 0.00 78 1028.8
20260501212043 50 135 1.0 2.0 0.00 0.00 0.00 79 1028.7
20260501211542 50 144 1.0 3.0 0.00 0.00 0.00 80 1028.6
20260501211043 50 145 0.0 1.0 0.00 0.00 0.00 80 1028.8
20260501210542 50 138 2.0 3.0 0.00 0.00 0.00 79 1028.7
20260501210043 50 158 1.0 2.0 0.00 0.00 0.00 80 1028.7
20260501205542 50 135 0.0 1.0 0.00 0.00 0.00 80 1028.8